Regional Weather Roundup
Issued by NWS New Orleans/Baton Rouge, LA

Home | Current Version | Previous Version | Text Only | Print | Product List | Glossary On
Versions: 1 2 3 4 5 6 7 8 9 10 11 12 13 14 15 16 17 18 19 20 21 22 23 24 25 26 27
000
ASUS44 KLIX 150713
RWRLIX
NEW ORLEANS REGIONAL WEATHER ROUNDUP
NATIONAL WEATHER SERVICE NEW ORLEANS LA
100 AM CST FRI DEC 15 2017

NOTE: "FAIR" INDICATES FEW OR NO CLOUDS BELOW 12,000 FEET WITH NO
      SIGNIFICANT WEATHER AND/OR OBSTRUCTIONS TO VISIBILITY.
      SKY/WX - SKY CONDITION AND SIGNIFICANT WEATHER.
      TMP - AIR TEMPERATURE.     DP    - DEWPOINT TEMPERATURE.
      RH  - RELATIVE HUMIDITY.   PRES  - PRESSURE.
      HI  - HEAT INDEX.          WCI   - WIND CHILL INDEX.

*  THESE STATIONS ARE NOT NWS OR FAA STATIONS AND ARE NOT UNDER
   NWS QUALITY CONTROL.

LAZ038-040-048-061>063-065>067-069-150800-
SOUTHEAST LOUISIANA

CITY           SKY/WX    TMP DP  RH WIND       PRES   REMARKS
N.O. INTL ARPT CLOUDY    54  51  90 CALM      30.06R
N.O. LAKEFRONT CLOUDY    56  52  86 CALM      30.06S
N.O. DOWNTOWN* CLOUDY    56  49  77 CALM      30.07R
RESERVE*         N/A     54  45  72 CALM      30.06S
SLIDELL        CLOUDY    48  45  89 CALM      30.06R
BATON ROUGE    CLOUDY    49  43  80 N3        30.07S
BOOTHVILLE     CLOUDY    58  54  86 CALM      30.04S
BELLE CHASSE   CLOUDY    52  52 100 N3        30.05R
BOGALUSA*        N/A     45  42  90 MISG      30.07R
GALLIANO*      CLOUDY    55  51  86 CALM      30.03F
NEW ROADS*       N/A     46  41  83 CALM      30.07F
GONZALES*        N/A     53  44  72 N6        30.06R
HAMMOND*       CLOUDY    46  45  93 CALM      30.06S
HOUMA*         CLOUDY    55  51  87 NW3       30.04S
PORT FOURCHON* CLOUDY    61  54  77 CALM      30.03F

$$

MSZ070-080>082-150800-
SOUTHERN MISSISSIPPI

CITY           SKY/WX    TMP DP  RH WIND       PRES   REMARKS
MCCOMB         CLOUDY    47  37  68 N7        30.07R
GULFPORT       PTCLDY    49  47  93 W3        30.05S FOG
BILOXI         PTCLDY    49  47  95 CALM      30.04R
PASCAGOULA     CLOUDY    45  42  89 CALM      30.05R FOG

$$

COASTAL OBSERVATIONS
LAKE AND NEARSHORE STATIONS

STATION/POSITION TIME  TEMP    WIND        PRES    WAVE
                       AIR SEA DIR/SP/G            HT/PER
                 (UTC) (F)     (DEG/KT/KT) (MB)    (FT/S)
PASCAGOULA       0636          340/  4/  5 1016.9
WAVELAND YACHT   0636      53  300/  2/  2 1017.3
GRAND ISLE       0648      62   CALM  /  2 1016.7
SOUTHWEST PASS   0648      62  110/  2/  3 1017.3
NEW CANAL        0648      55  290/  1/  2 1017.4
SHELL BEACH      0636      56  360/  3/  4 1017.4

OFFSHORE STATIONS

STATION/POSITION TIME  TEMP    WIND        PRES    WAVE
                       AIR SEA DIR/SP/G            HT/PER
                 (UTC) (F)     (DEG/KT/KT) (MB)    (FT/S)
64 S DAUPHIN ISL 0650   68 69  270/  8/ 10 1016.8    1/ 4

$$





USA.gov is the U.S. government's official web portal to all federal, state and local government web resources and services.